JST745 YSSY-YMLT

Flight info

Callsign JST745
Flight time 1h 21m
Altitude 38000
Route WOL H20 OTKED J22 LT
Aircraft A320/M-SDE3FGHIRWY/LB1

Departure

Time 2026-04-15 06:16
Airport Sydney Kingsford Smith International Airport (YSSY)

Arrival

Time 2026-04-15 07:38
Airport Launceston Airport (YMLT)
Time Latitude Longitude Altitude Speed Heading
2026-04-15 05:41 -33.93524 151.17764 30 ft 0 kts 279°
2026-04-15 06:03 -33.93525 151.17774 30 ft 2 kts 274°
2026-04-15 06:03 -33.93526 151.17793 30 ft 2 kts 268°
2026-04-15 06:04 -33.93525 151.17813 30 ft 2 kts 252°
2026-04-15 06:04 -33.93518 151.17831 30 ft 2 kts 220°
2026-04-15 06:04 -33.93504 151.17841 30 ft 2 kts 194°
2026-04-15 06:04 -33.93495 151.17844 30 ft 1 kts 189°
2026-04-15 06:05 -33.93494 151.17844 30 ft 0 kts 189°
2026-04-15 06:08 -33.93503 151.17842 30 ft 3 kts 189°
2026-04-15 06:08 -33.93533 151.17836 30 ft 4 kts 190°
2026-04-15 06:08 -33.93562 151.17830 30 ft 4 kts 190°
2026-04-15 06:09 -33.93602 151.17821 30 ft 7 kts 190°
2026-04-15 06:09 -33.93655 151.17809 30 ft 5 kts 193°
2026-04-15 06:09 -33.93667 151.17799 30 ft 1 kts 255°
2026-04-15 06:09 -33.93664 151.17788 30 ft 3 kts 280°
2026-04-15 06:10 -33.93655 151.17753 30 ft 6 kts 289°
2026-04-15 06:10 -33.93646 151.17696 30 ft 8 kts 279°
2026-04-15 06:10 -33.93639 151.17617 30 ft 11 kts 264°
2026-04-15 06:10 -33.93613 151.17539 29 ft 11 kts 332°
2026-04-15 06:11 -33.93535 151.17516 29 ft 12 kts 348°
2026-04-15 06:11 -33.93451 151.17497 30 ft 11 kts 359°
2026-04-15 06:11 -33.93403 151.17506 30 ft 7 kts 13°
2026-04-15 06:11 -33.93348 151.17495 30 ft 9 kts 345°
2026-04-15 06:12 -33.93276 151.17478 30 ft 12 kts 349°
2026-04-15 06:12 -33.93190 151.17455 30 ft 14 kts 346°
2026-04-15 06:12 -33.93111 151.17434 30 ft 10 kts 349°
2026-04-15 06:12 -33.93035 151.17415 31 ft 12 kts 350°
2026-04-15 06:13 -33.92980 151.17394 31 ft 9 kts 315°
2026-04-15 06:13 -33.92961 151.17323 31 ft 7 kts 282°
2026-04-15 06:13 -33.92958 151.17302 31 ft 0 kts 280°
2026-04-15 06:14 -33.92957 151.17299 31 ft 2 kts 280°
2026-04-15 06:14 -33.92953 151.17274 31 ft 4 kts 280°
2026-04-15 06:14 -33.92946 151.17226 31 ft 7 kts 280°
2026-04-15 06:15 -33.92970 151.17176 31 ft 9 kts 203°
2026-04-15 06:15 -33.93019 151.17180 30 ft 0 kts 168°
2026-04-15 06:15 -33.93018 151.17180 30 ft 0 kts 168°
2026-04-15 06:15 -33.93030 151.17183 30 ft 13 kts 168°
2026-04-15 06:16 -33.93385 151.17275 28 ft 87 kts 168°
2026-04-15 06:16 -33.94173 151.17479 30 ft 142 kts 168°
2026-04-15 06:16 -33.95197 151.17736 404 ft 157 kts 172°
2026-04-15 06:16 -33.96323 151.17663 949 ft 170 kts 191°
2026-04-15 06:17 -33.97506 151.17377 1631 ft 173 kts 191°
2026-04-15 06:17 -33.98645 151.16777 2127 ft 189 kts 205°
2026-04-15 06:17 -33.99871 151.15979 2484 ft 210 kts 207°
2026-04-15 06:17 -34.01234 151.15087 2887 ft 236 kts 208°
2026-04-15 06:18 -34.02731 151.14104 3544 ft 251 kts 210°
2026-04-15 06:18 -34.04283 151.13085 4457 ft 257 kts 211°
2026-04-15 06:18 -34.05869 151.12045 5387 ft 261 kts 211°
2026-04-15 06:18 -34.07473 151.10991 6402 ft 264 kts 211°
2026-04-15 06:19 -34.09092 151.09926 7339 ft 266 kts 211°
2026-04-15 06:19 -34.10725 151.08851 8249 ft 269 kts 211°
2026-04-15 06:19 -34.12378 151.07764 9156 ft 272 kts 211°
2026-04-15 06:19 -34.14045 151.06672 10074 ft 273 kts 211°
2026-04-15 06:20 -34.15767 151.05540 10496 ft 293 kts 211°
2026-04-15 06:20 -34.17623 151.04313 10782 ft 314 kts 211°
2026-04-15 06:20 -34.19574 151.03026 11350 ft 322 kts 211°
2026-04-15 06:20 -34.21561 151.01718 12062 ft 327 kts 211°
2026-04-15 06:21 -34.23570 151.00399 12805 ft 330 kts 211°
2026-04-15 06:21 -34.25599 150.99068 13545 ft 334 kts 211°
2026-04-15 06:21 -34.27659 150.97715 14240 ft 338 kts 211°
2026-04-15 06:21 -34.29732 150.96353 14909 ft 340 kts 211°
2026-04-15 06:22 -34.31816 150.94982 15576 ft 343 kts 211°
2026-04-15 06:22 -34.33892 150.93611 16229 ft 345 kts 211°
2026-04-15 06:22 -34.36035 150.92195 16883 ft 348 kts 211°
2026-04-15 06:22 -34.38167 150.90782 17541 ft 351 kts 211°
2026-04-15 06:23 -34.40314 150.89356 18205 ft 354 kts 211°
2026-04-15 06:23 -34.42482 150.87923 18809 ft 357 kts 211°
2026-04-15 06:23 -34.44643 150.86499 19398 ft 360 kts 211°
2026-04-15 06:23 -34.46849 150.85041 20009 ft 363 kts 212°
2026-04-15 06:24 -34.49072 150.83568 20631 ft 366 kts 212°
2026-04-15 06:24 -34.51310 150.82077 21240 ft 368 kts 212°
2026-04-15 06:24 -34.53564 150.80579 21833 ft 371 kts 212°
2026-04-15 06:24 -34.55835 150.79073 22399 ft 374 kts 213°
2026-04-15 06:25 -34.58129 150.77553 22953 ft 377 kts 213°
2026-04-15 06:25 -34.60434 150.76024 23496 ft 380 kts 213°
2026-04-15 06:25 -34.62763 150.74478 23966 ft 383 kts 212°
2026-04-15 06:25 -34.65109 150.72922 24394 ft 386 kts 213°
2026-04-15 06:26 -34.67472 150.71359 24819 ft 388 kts 213°
2026-04-15 06:26 -34.69858 150.69781 25249 ft 391 kts 213°
2026-04-15 06:26 -34.72258 150.68192 25689 ft 394 kts 213°
2026-04-15 06:26 -34.74668 150.66594 26098 ft 396 kts 213°
2026-04-15 06:27 -34.77094 150.64981 26542 ft 399 kts 213°
2026-04-15 06:27 -34.79536 150.63358 26944 ft 401 kts 213°
2026-04-15 06:27 -34.81991 150.61724 27344 ft 403 kts 213°
2026-04-15 06:27 -34.84460 150.60079 27734 ft 406 kts 213°
2026-04-15 06:28 -34.86945 150.58424 28154 ft 408 kts 213°
2026-04-15 06:28 -34.89443 150.56761 28571 ft 410 kts 213°
2026-04-15 06:28 -34.91952 150.55088 28970 ft 412 kts 213°
2026-04-15 06:28 -34.94507 150.53469 29347 ft 418 kts 208°
2026-04-15 06:29 -34.97281 150.52309 29723 ft 427 kts 200°
2026-04-15 06:29 -35.00182 150.51445 30096 ft 430 kts 199°
2026-04-15 06:29 -35.03097 150.50585 30413 ft 432 kts 199°
2026-04-15 06:29 -35.06025 150.49725 30718 ft 434 kts 200°
2026-04-15 06:30 -35.08967 150.48857 31038 ft 436 kts 200°
2026-04-15 06:30 -35.10924 150.48277 31246 ft 436 kts 200°
2026-04-15 06:30 -35.14828 150.47118 31810 ft 435 kts 200°
2026-04-15 06:30 -35.16806 150.46532 32107 ft 434 kts 200°
2026-04-15 06:31 -35.19733 150.45662 32538 ft 432 kts 201°
2026-04-15 06:31 -35.22653 150.44790 32948 ft 432 kts 201°
2026-04-15 06:31 -35.26513 150.43631 33496 ft 431 kts 201°
2026-04-15 06:31 -35.28478 150.43041 33816 ft 430 kts 201°
2026-04-15 06:32 -35.31385 150.42170 34246 ft 429 kts 202°
2026-04-15 06:32 -35.34281 150.41304 34638 ft 428 kts 202°
2026-04-15 06:32 -35.37176 150.40440 35013 ft 427 kts 202°
2026-04-15 06:32 -35.40020 150.39592 35376 ft 426 kts 202°
2026-04-15 06:33 -35.42892 150.38733 35741 ft 424 kts 203°
2026-04-15 06:33 -35.45757 150.37875 36090 ft 423 kts 203°
2026-04-15 06:33 -35.48618 150.37016 36460 ft 422 kts 203°
2026-04-15 06:33 -35.51466 150.36160 36794 ft 421 kts 203°
2026-04-15 06:34 -35.54315 150.35303 37121 ft 421 kts 204°
2026-04-15 06:34 -35.57151 150.34449 37451 ft 420 kts 204°
2026-04-15 06:34 -35.59987 150.33593 37765 ft 419 kts 204°
2026-04-15 06:34 -35.62816 150.32740 38049 ft 419 kts 204°
2026-04-15 06:35 -35.65646 150.31885 38114 ft 419 kts 204°
2026-04-15 06:35 -35.71303 150.30175 38111 ft 418 kts 204°
2026-04-15 06:36 -35.76952 150.28468 38112 ft 418 kts 204°
2026-04-15 06:36 -35.82594 150.26759 38111 ft 418 kts 204°
2026-04-15 06:37 -35.88236 150.25046 38112 ft 418 kts 204°
2026-04-15 06:37 -35.93885 150.23333 38138 ft 418 kts 204°
2026-04-15 06:38 -35.99528 150.21616 38131 ft 418 kts 204°
2026-04-15 06:38 -36.05170 150.19899 38130 ft 418 kts 204°
2026-04-15 06:39 -36.10812 150.18180 38134 ft 417 kts 204°
2026-04-15 06:39 -36.16440 150.16460 38108 ft 417 kts 204°
2026-04-15 06:40 -36.22043 150.14743 38107 ft 418 kts 204°
2026-04-15 06:40 -36.27692 150.13005 38117 ft 419 kts 204°
2026-04-15 06:41 -36.33353 150.11267 38146 ft 419 kts 203°
2026-04-15 06:41 -36.39018 150.09532 38142 ft 419 kts 203°
2026-04-15 06:42 -36.44691 150.07788 38131 ft 419 kts 203°
2026-04-15 06:42 -36.50324 150.06056 38157 ft 420 kts 203°
2026-04-15 06:43 -36.55989 150.04305 38152 ft 419 kts 203°
2026-04-15 06:43 -36.61651 150.02551 38138 ft 419 kts 203°
2026-04-15 06:44 -36.67313 150.00798 38148 ft 419 kts 203°
2026-04-15 06:44 -36.72973 149.99046 38131 ft 419 kts 203°
2026-04-15 06:45 -36.78642 149.97296 38138 ft 419 kts 203°
2026-04-15 06:45 -36.84304 149.95529 38129 ft 419 kts 203°
2026-04-15 06:46 -36.89956 149.93761 38150 ft 419 kts 203°
2026-04-15 06:46 -36.95609 149.91989 38144 ft 419 kts 203°
2026-04-15 06:47 -37.01272 149.90228 38139 ft 419 kts 203°
2026-04-15 06:47 -37.06934 149.88461 38147 ft 419 kts 203°
2026-04-15 06:48 -37.12549 149.86696 38135 ft 419 kts 203°
2026-04-15 06:48 -37.18213 149.84923 38132 ft 419 kts 203°
2026-04-15 06:49 -37.23867 149.83137 38132 ft 419 kts 203°
2026-04-15 06:49 -37.29517 149.81353 38124 ft 417 kts 203°
2026-04-15 06:50 -37.37959 149.78692 38126 ft 417 kts 203°
2026-04-15 06:50 -37.43590 149.76912 38128 ft 417 kts 203°
2026-04-15 06:51 -37.49182 149.75145 38153 ft 417 kts 202°
2026-04-15 06:51 -37.54807 149.73364 38144 ft 417 kts 202°
2026-04-15 06:52 -37.60336 149.71332 38138 ft 406 kts 212°
2026-04-15 06:52 -37.65316 149.68103 38163 ft 402 kts 215°
2026-04-15 06:53 -37.70281 149.64840 38154 ft 402 kts 214°
2026-04-15 06:53 -37.75248 149.61585 38144 ft 402 kts 214°
2026-04-15 06:54 -37.80216 149.58323 38128 ft 402 kts 215°
2026-04-15 06:54 -37.85171 149.55045 38139 ft 402 kts 215°
2026-04-15 06:55 -37.90127 149.51765 38134 ft 402 kts 215°
2026-04-15 06:55 -37.95062 149.48512 38133 ft 402 kts 215°
2026-04-15 06:56 -38.00023 149.45226 38155 ft 402 kts 215°
2026-04-15 06:56 -38.04980 149.41930 38143 ft 402 kts 215°
2026-04-15 06:57 -38.09933 149.38629 38136 ft 402 kts 215°
2026-04-15 06:57 -38.14887 149.35329 38129 ft 402 kts 215°
2026-04-15 06:58 -38.19836 149.32031 38131 ft 401 kts 214°
2026-04-15 06:58 -38.24775 149.28727 38126 ft 401 kts 214°
2026-04-15 06:59 -38.29705 149.25422 38134 ft 400 kts 214°
2026-04-15 06:59 -38.34643 149.22115 38143 ft 400 kts 214°
2026-04-15 07:00 -38.39557 149.18830 38144 ft 398 kts 214°
2026-04-15 07:00 -38.44456 149.15538 38135 ft 397 kts 214°
2026-04-15 07:01 -38.49311 149.12269 38132 ft 397 kts 214°
2026-04-15 07:01 -38.54195 149.08973 38127 ft 397 kts 215°
2026-04-15 07:02 -38.59078 149.05676 38127 ft 397 kts 214°
2026-04-15 07:02 -38.63964 149.02381 38116 ft 397 kts 215°
2026-04-15 07:03 -38.68844 148.99071 38123 ft 397 kts 215°
2026-04-15 07:03 -38.73721 148.95752 38121 ft 397 kts 215°
2026-04-15 07:04 -38.78599 148.92442 38123 ft 397 kts 215°
2026-04-15 07:04 -38.83478 148.89124 38142 ft 397 kts 215°
2026-04-15 07:05 -38.88353 148.85796 38129 ft 397 kts 215°
2026-04-15 07:05 -38.93198 148.82491 38119 ft 397 kts 215°
2026-04-15 07:06 -38.98075 148.79163 38118 ft 397 kts 215°
2026-04-15 07:06 -39.02952 148.75829 38133 ft 397 kts 215°
2026-04-15 07:07 -39.07827 148.72496 38108 ft 397 kts 215°
2026-04-15 07:07 -39.12699 148.69144 38104 ft 397 kts 215°
2026-04-15 07:08 -39.17569 148.65783 38131 ft 397 kts 215°
2026-04-15 07:08 -39.22445 148.62422 38114 ft 397 kts 215°
2026-04-15 07:09 -39.27319 148.59066 38113 ft 397 kts 215°
2026-04-15 07:09 -39.32193 148.55706 38132 ft 397 kts 215°
2026-04-15 07:10 -39.37030 148.52366 38122 ft 397 kts 215°
2026-04-15 07:10 -39.41893 148.48994 38112 ft 396 kts 215°
2026-04-15 07:11 -39.46752 148.45615 38084 ft 397 kts 215°
2026-04-15 07:11 -39.51615 148.42228 38119 ft 397 kts 215°
2026-04-15 07:12 -39.56474 148.38842 38116 ft 396 kts 216°
2026-04-15 07:12 -39.61327 148.35446 38111 ft 396 kts 216°
2026-04-15 07:13 -39.66178 148.32056 38123 ft 396 kts 215°
2026-04-15 07:13 -39.71024 148.28669 38109 ft 395 kts 216°
2026-04-15 07:14 -39.75858 148.25287 38110 ft 395 kts 215°
2026-04-15 07:14 -39.80661 148.21925 38130 ft 394 kts 216°
2026-04-15 07:15 -39.85483 148.18523 38090 ft 394 kts 216°
2026-04-15 07:15 -39.90305 148.15123 38091 ft 394 kts 216°
2026-04-15 07:16 -39.95128 148.11723 38091 ft 394 kts 216°
2026-04-15 07:16 -39.99949 148.08317 38109 ft 394 kts 216°
2026-04-15 07:17 -40.04758 148.04913 38099 ft 393 kts 216°
2026-04-15 07:17 -40.09580 148.01524 38095 ft 396 kts 212°
2026-04-15 07:18 -40.14692 147.98717 38090 ft 399 kts 210°
2026-04-15 07:18 -40.19819 147.95942 38090 ft 399 kts 210°
2026-04-15 07:19 -40.24910 147.93182 38089 ft 398 kts 210°
2026-04-15 07:19 -40.30028 147.90397 38109 ft 398 kts 210°
2026-04-15 07:20 -40.35139 147.87609 38093 ft 398 kts 210°
2026-04-15 07:20 -40.40246 147.84827 38087 ft 397 kts 210°
2026-04-15 07:21 -40.45353 147.82036 38095 ft 397 kts 211°
2026-04-15 07:21 -40.50456 147.79241 37019 ft 399 kts 210°
2026-04-15 07:22 -40.53047 147.77816 35475 ft 407 kts 210°
2026-04-15 07:22 -40.54783 147.76858 34496 ft 410 kts 209°
2026-04-15 07:22 -40.57422 147.75405 32887 ft 413 kts 209°
2026-04-15 07:22 -40.60063 147.73957 31567 ft 410 kts 209°
2026-04-15 07:23 -40.62683 147.72525 30370 ft 405 kts 209°
2026-04-15 07:23 -40.65268 147.71113 29131 ft 399 kts 209°
2026-04-15 07:23 -40.67810 147.69722 27936 ft 392 kts 209°
2026-04-15 07:23 -40.70309 147.68354 26787 ft 385 kts 209°
2026-04-15 07:24 -40.72769 147.67004 25680 ft 379 kts 209°
2026-04-15 07:24 -40.75182 147.65673 24627 ft 373 kts 209°
2026-04-15 07:24 -40.77558 147.64353 23639 ft 368 kts 209°
2026-04-15 07:24 -40.79901 147.63046 22508 ft 364 kts 209°
2026-04-15 07:25 -40.82220 147.61756 21472 ft 359 kts 209°
2026-04-15 07:25 -40.84505 147.60490 20515 ft 354 kts 209°
2026-04-15 07:25 -40.86729 147.59264 19936 ft 339 kts 209°
2026-04-15 07:25 -40.88870 147.58086 19336 ft 329 kts 209°
2026-04-15 07:26 -40.90972 147.56921 18742 ft 326 kts 209°
2026-04-15 07:26 -40.93053 147.55764 18154 ft 323 kts 209°
2026-04-15 07:26 -40.95122 147.54611 17485 ft 324 kts 209°
2026-04-15 07:26 -40.97203 147.53445 16810 ft 325 kts 209°
2026-04-15 07:27 -40.99266 147.52290 16158 ft 327 kts 209°
2026-04-15 07:27 -41.01391 147.51103 15490 ft 328 kts 208°
2026-04-15 07:27 -41.03466 147.49945 14870 ft 328 kts 208°
2026-04-15 07:27 -41.05571 147.48771 14254 ft 328 kts 208°
2026-04-15 07:28 -41.07674 147.47598 13617 ft 328 kts 208°
2026-04-15 07:28 -41.09778 147.46426 12954 ft 328 kts 208°
2026-04-15 07:28 -41.11876 147.45258 12286 ft 327 kts 208°
2026-04-15 07:28 -41.13972 147.44089 11634 ft 326 kts 208°
2026-04-15 07:29 -41.16052 147.42924 10984 ft 324 kts 208°
2026-04-15 07:29 -41.18120 147.41763 10354 ft 322 kts 208°
2026-04-15 07:29 -41.20177 147.40605 9717 ft 320 kts 208°
2026-04-15 07:29 -41.22161 147.39320 9145 ft 312 kts 218°
2026-04-15 07:30 -41.23674 147.37410 8998 ft 291 kts 234°
2026-04-15 07:30 -41.24858 147.35310 8865 ft 276 kts 235°
2026-04-15 07:30 -41.25980 147.33305 8734 ft 264 kts 236°
2026-04-15 07:30 -41.27054 147.31371 8473 ft 257 kts 236°
2026-04-15 07:31 -41.28106 147.29467 8127 ft 254 kts 235°
2026-04-15 07:31 -41.29149 147.27576 7765 ft 254 kts 235°
2026-04-15 07:31 -41.30181 147.25707 7403 ft 255 kts 235°
2026-04-15 07:31 -41.31229 147.23810 7038 ft 255 kts 235°
2026-04-15 07:32 -41.32273 147.21918 6668 ft 251 kts 236°
2026-04-15 07:32 -41.33281 147.20093 6308 ft 239 kts 236°
2026-04-15 07:32 -41.34244 147.18350 5967 ft 228 kts 236°
2026-04-15 07:32 -41.35159 147.16681 5637 ft 218 kts 236°
2026-04-15 07:33 -41.36035 147.15085 5328 ft 209 kts 236°
2026-04-15 07:33 -41.36875 147.13555 5035 ft 200 kts 237°
2026-04-15 07:33 -41.37670 147.12108 4749 ft 189 kts 236°
2026-04-15 07:33 -41.38431 147.10724 4468 ft 182 kts 236°
2026-04-15 07:34 -41.39254 147.09456 4208 ft 183 kts 215°
2026-04-15 07:34 -41.40475 147.09201 3948 ft 184 kts 166°
2026-04-15 07:34 -41.41585 147.10017 3671 ft 180 kts 151°
2026-04-15 07:34 -41.42613 147.10902 3409 ft 173 kts 150°
2026-04-15 07:35 -41.43584 147.11743 3145 ft 165 kts 152°
2026-04-15 07:35 -41.44515 147.12569 2867 ft 157 kts 150°
2026-04-15 07:35 -41.45388 147.13362 2741 ft 151 kts 152°
2026-04-15 07:35 -41.46266 147.14126 2543 ft 150 kts 151°
2026-04-15 07:36 -41.47128 147.14875 2239 ft 147 kts 154°
2026-04-15 07:36 -41.48008 147.15582 1960 ft 148 kts 153°
2026-04-15 07:36 -41.48887 147.16317 1758 ft 150 kts 150°
2026-04-15 07:36 -41.49762 147.17055 1588 ft 148 kts 151°
2026-04-15 07:37 -41.50629 147.17790 1414 ft 147 kts 151°
2026-04-15 07:37 -41.51488 147.18507 1206 ft 145 kts 150°
2026-04-15 07:37 -41.52337 147.19258 978 ft 148 kts 153°
2026-04-15 07:37 -41.53215 147.19996 745 ft 147 kts 152°
2026-04-15 07:38 -41.54068 147.20721 564 ft 140 kts 152°
2026-04-15 07:38 -41.54696 147.21258 558 ft 65 kts 147°
2026-04-15 07:38 -41.54947 147.21473 557 ft 39 kts 148°
2026-04-15 07:38 -41.55134 147.21631 563 ft 14 kts 147°
2026-04-15 07:39 -41.55208 147.21645 550 ft 12 kts 225°
2026-04-15 07:39 -41.55223 147.21538 550 ft 12 kts 287°
2026-04-15 07:39 -41.55161 147.21462 551 ft 14 kts 329°
2026-04-15 07:39 -41.55073 147.21390 556 ft 16 kts 327°
2026-04-15 07:40 -41.54972 147.21304 556 ft 18 kts 327°
2026-04-15 07:40 -41.54860 147.21207 557 ft 20 kts 328°
2026-04-15 07:40 -41.54822 147.21176 556 ft 1 kts 328°
2026-04-15 07:40 -41.54805 147.21162 566 ft 5 kts 329°
2026-04-15 07:41 -41.54764 147.21131 559 ft 10 kts 330°
2026-04-15 07:41 -41.54701 147.21073 556 ft 13 kts 328°
2026-04-15 07:41 -41.54614 147.20998 558 ft 16 kts 327°
2026-04-15 07:41 -41.54512 147.20909 560 ft 19 kts 328°
2026-04-15 07:42 -41.54397 147.20812 560 ft 18 kts 328°
2026-04-15 07:42 -41.54333 147.20749 560 ft 10 kts 298°
2026-04-15 07:42 -41.54312 147.20675 564 ft 7 kts 292°
2026-04-15 07:42 -41.54303 147.20647 561 ft 0 kts 292°